Overview Statistics Trail Chart Weather Telemetry Raw packets
 

This is the latest recevied weather packets stored in our database for station/object KA4YMY. If no packets are shown the sender has not sent any weather packets the latest 10 day(s).

<< 1 2 3 4 5 >>
Time Temp. Humidity Pressure Rain* Wind** Luminosity Snow
1788559816 34.44° C 53% 1013.7 hPa 0 mm - - -
1788559216 35° C 53% 1013.7 hPa 0 mm - - -
1788558616 35° C 52% 1013.7 hPa 0 mm - - -
1788558016 35° C 53% 1013.6 hPa 0 mm - - -
1788557416 35° C 53% 1013.6 hPa 0 mm - - -
1788556816 35° C 55% 1013.6 hPa 0 mm - - -
1788556216 35° C 54% 1013.6 hPa 0 mm - - -
1788555616 35° C 53% 1013.7 hPa 0 mm - - -
1788555016 35° C 54% 1013.7 hPa 0 mm - - -
1788554416 35° C 54% 1013.8 hPa 0 mm - - -
1788553816 35° C 54% 1013.9 hPa 0 mm - - -
1788553216 35° C 56% 1013.8 hPa 0 mm - - -
1788552616 35° C 56% 1014.1 hPa 0 mm - - -
1788552016 34.44° C 56% 1014.2 hPa 0 mm - - -
1788551416 34.44° C 56% 1014.4 hPa 0 mm - - -
1788550816 35° C 54% 1014.7 hPa 0 mm - - -
1788550215 35° C 55% 1014.9 hPa 0 mm - - -
1788549616 34.44° C 56% 1015 hPa 0 mm - - -
1788549016 35° C 54% 1015.1 hPa 0 mm - - -
1788548415 35° C 53% 1015.3 hPa 0 mm - - -
1788547818 35.56° C 55% 1015.5 hPa 0 mm - - -
1788547217 35° C 55% 1015.6 hPa 0 mm - - -
1788546618 35° C 58% 1015.6 hPa 0 mm - - -
1788546017 35° C 56% 1015.8 hPa 0 mm - - -
1788545418 35° C 57% 1015.9 hPa 0 mm - - -

* Rain latest hour (hover to see other rain measurements)
** Current wind speed in m/s (hover to see current wind gust speed)